Location: Kawakawa
(35.3830°S, 174.0670°E)
Time: 17:39:45
(UTC+12:00)

Intelsat 5-1 Rocket - Pass Details

Date: 15 August 2020
Orbit: 312 x 7605 km, 23.9° (Epoch: 25 September)

Event Time Altitude Azimuth Distance (km) Brightness Sun altitude
Rises 20:01:13 0° 276° (W) 7,140 8.7 -26.8°
Reaches altitude 10° 20:08:11 10° 284° (WNW) 4,760 7.4 -28.2°
Maximum altitude 20:17:16 29° 338° (NNW) 1,821 4.5 -30.1°
Enters shadow 20:18:17 28° 355° (N) 1,702 4.2 -30.3°
